Weather History for KIZG - November, 2012

Change the Weather History Date:

Tuesday, November 6, 2012

  Actual Average Record
Temperature  
Mean Temperature 28 °F -  
Max Temperature 39 °F 47 °F 62 °F (2008)
Min Temperature 17 °F 27 °F 15 °F (2011)
Degree Days  
Heating Degree Days 36    
Moisture  
Dew Point 15 °F    
Average Humidity 61    
Maximum Humidity 96    
Minimum Humidity 35    
Precipitation  
Precipitation 0.00 in - - ()
Sea Level Pressure  
Sea Level Pressure 30.20 in    
Wind  
Wind Speed 3 mph (WNW)    
Max Wind Speed 7 mph    
Max Gust Speed -    
Visibility 10 miles    
Events      
Averages and records for this station are not official NWS values.
T = Trace of Precipitation, MM = Missing Value Source: NWS Daily Summary

Daily Weather History Graph

Daily Weather History Graph

Search for Another Location

Airport or City:

Trip Planner

Search our weather history database for the weather conditions in past years. The results will help you decide how hot, cold, wet, or windy it might be!

Date:

Astronomy

Nov. 06, 2012 Rise Set
Actual Time 6:27 AM EST 4:26 PM EST
Civil Twilight 5:56 AM EST 4:57 PM EST
Nautical Twilight 5:22 AM EST 5:31 PM EST
Astronomical Twilight 4:48 AM EST 6:05 PM EST
Moon 11:05 PM EST (11/6) 12:16 PM EST (11/6)
Length of Visible Light 11h 00m
Length of Day
9h 59m
Waning Gibbous, 53% of the Moon is Illuminated
Nov 6
Waning Gibbous
Nov 6
Last Quarter
Nov 13
New
Nov 20
First Quarter
Nov 28
Full

Hourly Weather History & Observations

Time (EST) Temp. Windchill Dew Point Humidity Pressure Visibility Wind Dir Wind Speed Gust Speed Precip Events Conditions
12:54 AM 28.0 °F 24.2 °F 18.0 °F 66% 30.11 in 10.0 mi WSW 3.5 mph - 0.00 in   Clear
1:54 AM 28.0 °F 22.8 °F 17.1 °F 63% 30.12 in 10.0 mi WSW 4.6 mph - N/A   Scattered Clouds
2:54 AM 28.9 °F 21.9 °F 17.1 °F 61% 30.12 in 10.0 mi WNW 6.9 mph - N/A   Clear
3:54 AM 28.0 °F 21.7 °F 12.0 °F 51% 30.13 in 10.0 mi WSW 5.8 mph - N/A   Clear
4:54 AM 27.0 °F 23.0 °F 10.9 °F 51% 30.14 in 10.0 mi West 3.5 mph - N/A   Clear
5:54 AM 24.1 °F - 12.9 °F 62% 30.16 in 10.0 mi Calm Calm - N/A   Partly Cloudy
6:54 AM 21.0 °F - 14.0 °F 74% 30.17 in 10.0 mi Calm Calm - N/A   Clear
7:54 AM 30.0 °F - 15.1 °F 54% 30.19 in 10.0 mi Calm Calm - 0.00 in   Clear
8:54 AM 33.1 °F 27.7 °F 14.0 °F 46% 30.21 in 10.0 mi ENE 5.8 mph - N/A   Clear
9:54 AM 34.0 °F 29.8 °F 15.1 °F 46% 30.22 in 10.0 mi Variable 4.6 mph - 0.00 in   Clear
10:54 AM 37.0 °F - 15.1 °F 41% 30.22 in 10.0 mi Calm Calm - N/A   Clear
11:54 AM 37.0 °F - 12.9 °F 37% 30.21 in 10.0 mi Calm Calm - N/A   Clear
12:54 PM 37.9 °F - 14.0 °F 38% 30.20 in 10.0 mi Calm Calm - N/A   Clear
1:54 PM 39.0 °F 36.8 °F 14.0 °F 36% 30.19 in 10.0 mi ENE 3.5 mph - N/A   Clear
2:54 PM 39.0 °F - 14.0 °F 36% 30.20 in 10.0 mi Calm Calm - N/A   Clear
3:54 PM 37.9 °F - 12.0 °F 35% 30.20 in 10.0 mi Calm Calm - N/A   Clear
4:54 PM 28.0 °F - 14.0 °F 56% 30.21 in 10.0 mi Calm Calm - N/A   Clear
5:54 PM 26.1 °F - 17.1 °F 69% 30.24 in 10.0 mi Calm Calm - N/A   Clear
6:54 PM 23.0 °F 18.4 °F 19.0 °F 85% 30.25 in 10.0 mi WNW 3.5 mph - N/A   Clear
7:54 PM 21.9 °F 17.2 °F 18.0 °F 85% 30.27 in 10.0 mi WNW 3.5 mph - N/A   Clear
8:54 PM 21.0 °F - 18.0 °F 88% 30.27 in 10.0 mi Calm Calm - N/A   Clear
9:54 PM 19.0 °F - 16.0 °F 88% 30.27 in 10.0 mi Calm Calm - N/A   Clear
10:54 PM 18.0 °F - 16.0 °F 92% 30.26 in 10.0 mi Calm Calm - N/A   Clear
11:54 PM 17.1 °F - 16.0 °F 96% 30.25 in 10.0 mi Calm Calm - N/A   Clear